St. Joseph, KS

11:51 PM CDT on May 23, 2017 (GMT -0500)
Rosecrans Memorial

Weather History for KSTJ - July, 2013

Change the Weather History Date:

Tuesday, July 2, 2013

  Actual Average Record
Temperature  
Mean Temperature 70 °F 76 °F  
Max Temperature 85 °F 86 °F 102 °F (1911)
Min Temperature 54 °F 66 °F 51 °F (1924)
Degree Days  
Heating Degree Days 0 0  
Month to date heating degree days 0 0  
Since 1 June heating degree days 15 8  
Since 1 July heating degree days 0 0  
Cooling Degree Days 5 11  
Month to date cooling degree days 9 22  
Year to date cooling degree days 410 402  
Since 1 June cooling degree days 284 289  
Growing Degree Days 20 (Base 50)    
Moisture  
Dew Point 55 °F    
Average Humidity 63    
Maximum Humidity 93    
Minimum Humidity 32    
Precipitation  
Precipitation T in 0.15 in 1.78 in (1973)
Month to date precipitation T 0.31  
Year to date precipitation 16.14 17.44  
Sea Level Pressure  
Sea Level Pressure 30.09 in    
Wind  
Wind Speed 4 mph (NNE)    
Max Wind Speed 29 mph    
Max Gust Speed 51 mph    
Visibility 10 miles    
Events Rain , Thunderstorm    
T = Trace of Precipitation, MM = Missing Value Source: NWS Daily Summary

Daily Weather History Graph

Daily Weather History Graph

Search for Another Location

Airport or City:

Trip Planner

Search our weather history database for the weather conditions in past years. The results will help you decide how hot, cold, wet, or windy it might be!

Date:

Astronomy

Jul. 02, 2013 Rise Set
Actual Time 5:55 AM CDT 8:51 PM CDT
Civil Twilight 5:23 AM CDT 9:23 PM CDT
Nautical Twilight 4:42 AM CDT 10:04 PM CDT
Astronomical Twilight 3:54 AM CDT 10:52 PM CDT
Moon 1:58 AM CDT (7/2) 4:06 PM CDT (7/2)
Length of Visible Light 16h 00m
Length of Day
14h 55m
Waning Crescent, 26% of the Moon is Illuminated
Jul 2
Waning Crescent
Jul 8
New
Jul 15
First Quarter
Jul 22
Full
Jul 29
Last Quarter

Hourly Weather History & Observations

Time (CDT) Temp. Heat Index Dew Point Humidity Pressure Visibility Wind Dir Wind Speed Gust Speed Precip Events Conditions
12:53 AM 60.1 °F - 54.0 °F 80% 30.09 in 10.0 mi North 5.8 mph - N/A   Clear
1:53 AM 59.0 °F - 53.1 °F 81% 30.10 in 10.0 mi North 5.8 mph - N/A   Clear
2:53 AM 57.9 °F - 53.1 °F 84% 30.09 in 10.0 mi North 4.6 mph - N/A   Clear
3:53 AM 57.9 °F - 54.0 °F 87% 30.09 in 10.0 mi North 3.5 mph - N/A   Clear
4:53 AM 55.9 °F - 53.1 °F 90% 30.10 in 10.0 mi Calm Calm - N/A   Clear
5:53 AM 55.0 °F - 51.1 °F 86% 30.12 in 10.0 mi North 3.5 mph - N/A   Clear
6:26 AM 55.4 °F - 53.6 °F 94% 30.14 in 10.0 mi North 3.5 mph - N/A   Partly Cloudy
6:53 AM 57.9 °F - 55.0 °F 90% 30.13 in 10.0 mi Calm Calm - N/A   Clear
7:32 AM 60.8 °F - 55.4 °F 82% 30.15 in 10.0 mi Calm Calm - N/A   Partly Cloudy
7:35 AM 60.8 °F - 55.4 °F 82% 30.15 in 10.0 mi Calm Calm - N/A   Clear
7:53 AM 63.0 °F - 57.0 °F 81% 30.13 in 10.0 mi Calm Calm - N/A   Clear
9:53 AM 73.0 °F - 55.9 °F 55% 30.14 in 10.0 mi Calm Calm - N/A   Clear
10:53 AM 78.1 °F - 54.0 °F 43% 30.13 in 10.0 mi NNE 5.8 mph - N/A   Clear
11:53 AM 81.0 °F 80.4 °F 53.1 °F 38% 30.12 in 10.0 mi North 5.8 mph - N/A   Clear
12:53 PM 81.0 °F - 51.1 °F 35% 30.12 in 10.0 mi NNE 8.1 mph - N/A   Clear
1:53 PM 82.9 °F - 52.0 °F 34% 30.10 in 10.0 mi North 8.1 mph - N/A   Partly Cloudy
2:53 PM 84.9 °F 83.3 °F 54.0 °F 34% 30.09 in 10.0 mi North 8.1 mph - N/A   Scattered Clouds
3:53 PM 81.0 °F - 51.1 °F 35% 30.07 in 10.0 mi Variable 3.5 mph - N/A   Mostly Cloudy
4:53 PM 84.0 °F - 51.1 °F 32% 30.06 in 10.0 mi NNW 4.6 mph - N/A   Partly Cloudy
5:00 PM 84.2 °F - 51.8 °F 33% 30.07 in 10.0 mi North 4.6 mph - N/A Thunderstorm Scattered Clouds
5:31 PM 71.6 °F - 53.6 °F 53% 30.08 in 7.0 mi ESE 12.7 mph - 0.00 in Rain Light Rain
5:38 PM 71.6 °F - 53.6 °F 53% 30.07 in 10.0 mi ESE 9.2 mph - 0.00 in Thunderstorm Overcast
5:53 PM 73.0 °F - 55.0 °F 53% 30.06 in 9.0 mi SSW 5.8 mph - 0.00 in Rain Light Rain
6:53 PM 78.1 °F - 54.0 °F 43% 30.05 in 10.0 mi Calm Calm - 0.00 in   Clear
7:53 PM 77.0 °F - 55.9 °F 48% 30.05 in 10.0 mi Calm Calm - N/A   Mostly Cloudy
8:32 PM 75.2 °F - 60.8 °F 61% 30.06 in 10.0 mi Calm Calm - N/A   Partly Cloudy
8:53 PM 72.0 °F - 63.0 °F 73% 30.04 in 10.0 mi Calm Calm - N/A   Partly Cloudy
9:03 PM 73.4 °F - 62.6 °F 69% 30.06 in 10.0 mi Calm Calm - N/A Thunderstorm Mostly Cloudy
9:20 PM 73.4 °F - 64.4 °F 73% 30.07 in 10.0 mi Calm Calm - 0.00 in Rain Light Rain
9:53 PM 69.1 °F - 63.0 °F 81% 30.06 in 10.0 mi NE 4.6 mph - 0.00 in   Partly Cloudy
10:53 PM 70.0 °F - 55.0 °F 59% 30.06 in 10.0 mi SSE 8.1 mph - N/A   Scattered Clouds
11:53 PM 64.9 °F - 55.9 °F 73% 30.06 in 10.0 mi SSW 4.6 mph - N/A   Clear